CAPE
20 0 3 0 8 0 0 0 0 0 0 0 0 0 0 0 0 0 0 0 0 0 0 0 0 0 0 0 0 0 0 0 2 6 10 6 5 5 3 1 1 0 0 0
41 1 0 0 43 38 3 0 0 0 0 0 0 0 0 0 0 0 0 0 0 0 0 0 0 0 0 0 0 0 0 1 1 0 1 2 2 2 2 1 1 0 0 0
11 2 3 35 17 53 4 0 0 0 0 1 0 0 0 0 0 0 0 0 0 0 0 0 0 0 0 0 0 0 0 0 0 0 1 3 5 7 2 2 1 0 0 0
36 0 4 16 14 42 21 0 4 4 0 12 1 2 0 0 0 0 0 0 0 0 0 0 0 0 0 0 0 0 0 0 0 1 2 1 2 2 0 1 0 0 0 0
7 19 13 28 5 3 9 0 12 1 11 15 0 15 0 0 0 0 0 0 0 0 0 0 0 0 0 0 0 0 0 0 0 2 2 4 4 1 0 3 2 0 0 0
19 1 41 8 17 40 6 6 32 35 59 28 0 2 0 0 0 0 0 0 0 0 0 0 0 0 0 0 0 0 0 0 0 0 1 2 2 1 6 6 4 0 0 0
8 1 0 1 25 22 33 59 45 53 40 0 0 1 0 0 0 0 0 0 0 0 0 0 0 0 0 0 0 0 0 0 0 0 0 0 0 0 1 1 4 1 1 0
10 41 34 4 8 5 21 23 11 3 5 0 0 0 0 0 0 0 0 0 0 0 0 0 0 0 0 0 0 0 0 0 0 0 0 0 0 0 0 1 2 0 0 0
18 0 4 5 4 27 26 12 1 0 0 0 0 0 0 0 0 0 0 0 0 0 0 0 0 0 0 0 0 0 0 0 0 0 0 0 0 0 0 0 0 0 0 0
0 4 1 29 17 14 24 0 19 1 41 8 0 0 0 0 0 0 0 0 0 0 0 0 0 0 0 0 0 0 0 0 0 0 0 0 0 0 0 0 1 0 0 0
1 5 14 43 34 5 8 21 4 8 5 9 0 0 0 0 0 0 0 0 0 0 0 0 0 0 0 0 0 0 0 0 0 0 0 0 0 0 0 2 1 1 1 0
2 2 15 18 3 0 39 2 5 5 0 1 0 0 0 0 0 0 0 0 0 0 0 0 0 0 0 0 0 0 0 0 0 0 0 0 0 0 3 3 1 2 1 2
9 9 17 17 12 0 15 13 21 16 15 1 10 0 0 0 0 0 0 0 0 0 0 0 0 0 0 0 0 0 0 0 0 0 0 1 2 2 4 3 3 4 3 3
22 1 1 0 0 0 1 0 9 69 37 0 5 0 0 0 0 0 0 0 0 0 0 0 0 0 0 0 0 0 0 0 0 0 0 0 0 1 2 4 4 3 2 2
41 8 0 0 0 6 5 1 1 27 1 9 0 0 0 0 0 0 0 0 0 0 0 0 0 0 0 0 0 0 0 0 0 0 2 0 0 0 0 0 0 0 0 0
1 61 0 0 1 0 0 0 0 0 6 29 9 21 0 0 0 0 0 0 0 0 0 0 0 0 0 0 0 0 0 0 0 0 0 0 0 0 1 1 1 1 1 1
15 2 3 7 0 8 21 0 0 0 0 0 9 0 0 0 0 0 0 0 0 0 0 0 0 0 0 0 0 0 0 0 0 0 0 0 0 0 0 0 0 0 0 0
0 2 7 11 1 30 0 0 0 0 0 0 0 0 0 0 0 0 0 0 0 0 0 0 0 0 0 0 0 0 0 0 0 0 0 0 0 0 0 0 0 0 0 0
1 4 10 4 5 0 0 0 0 0 0 0 0 0 0 0 0 0 0 0 0 0 0 0 0 0 0 0 0 0 0 0 0 0 0 0 0 0 0 0 0 0 0 0
9 17 5 2 7 0 0 0 0 1 0 0 0 0 0 0 0 0 0 0 0 0 0 0 0 0 0 0 0 0 0 0 0 0 0 0 0 0 0 0 0 0 0 0
3 4 16 28 11 0 0 0 0 0 0 0 0 0 0 0 0 0 0 0 0 0 0 0 0 0 0 0 0 0 0 0 0 0 0 0 0 0 0 0 0 0 0 0
0 4 7 9 12 1 0 0 0 0 0 0 0 0 0 0 0 0 0 0 0 0 0 0 0 0 0 0 0 0 0 0 0 0 0 0 0 0 0 0 0 0 1 1
0 0 0 0 0 0 0 0 0 0 0 0 0 0 0 0 0 0 0 0 0 0 0 0 0 0 0 0 0 0 0 0 0 0 0 0 0 0 0 0 0 0 1 1
0 0 0 0 0 0 0 0 0 0 0 0 0 0 0 0 0 0 0 0 0 0 0 0 0 0 0 0 0 0 0 0 0 0 0 0 0 1 1 0 0 0 0 0
0 0 0 0 0 0 0 0 0 0 0 0 0 0 0 0 0 0 0 0 0 0 0 0 0 0 0 0 0 0 0 0 0 0 0 0 0 0 1 0 0 0 0 0
0 0 0 1 0 0 0 0 0 0 0 0 0 0 0 0 0 0 2 3 0 0 0 0 0 0 0 0 0 0 0 0 0 0 1 1 1 1 0 1 0 0 0 0
CIN
-26 -0 -0 -0 -1 -0 -0 -0 -0 -0 -0 -0 -0 -0 -0 -0 -0 -0 -0 -0 -0 -0 -0 -0 -0 -0 -0 -0 -0 -0 -0 -0 -0 -0 -0 -0 -0 -0 -0 -0 -0 -0 -0 -0
-2 -0 -0 -0 -0 -0 -2 -0 -0 -0 -0 -0 -0 -0 -0 -0 -0 -0 -0 -0 -0 -0 -0 -0 -0 -0 -0 -0 -0 -0 -0 -0 -0 -0 -0 -0 -0 -0 -0 -0 -0 -0 -0 -0
-0 -3 -0 -0 -0 -0 -4 -0 -0 -0 -0 -0 -0 -0 -0 -0 -0 -0 -0 -0 -0 -0 -0 -0 -0 -0 -0 -0 -0 -0 -0 -0 -0 -0 -0 -0 -0 -0 -0 -0 -0 -0 -0 -0
-2 -0 -18 -22 -7 -0 -0 -0 -1 -0 -0 -0 -0 -0 -0 -0 -0 -0 -0 -0 -0 -0 -0 -0 -0 -0 -0 -0 -0 -0 -0 -0 -0 -0 -0 -0 -0 -0 -0 -0 -0 -0 -0 -0
-0 -0 -1 -1 -3 -12 -0 -0 -23 -6 -0 -0 -0 -0 -0 -0 -0 -0 -0 -0 -0 -0 -0 -0 -0 -0 -0 -0 -0 -0 -0 -0 -0 -0 -0 -0 -0 -0 -0 -0 -0 -0 -0 -0
-1 -7 -18 -10 -26 -22 -35 -11 -0 -1 -0 -0 -0 -0 -0 -0 -0 -0 -0 -0 -0 -0 -0 -0 -0 -0 -0 -0 -0 -0 -0 -0 -0 -0 -0 -0 -0 -0 -0 -0 -0 -0 -0 -0
-3 -14 -0 -9 -6 -3 -3 -0 -0 -0 -2 -0 -0 -0 -0 -0 -0 -0 -0 -0 -0 -0 -0 -0 -0 -0 -0 -0 -0 -0 -0 -0 -0 -0 -0 -0 -0 -0 -0 -0 -0 -0 -0 -0
-0 -4 -1 -13 -0 -3 -0 -0 -1 -2 -0 -0 -0 -0 -0 -0 -0 -0 -0 -0 -0 -0 -0 -0 -0 -0 -0 -0 -0 -0 -0 -0 -0 -0 -0 -0 -0 -0 -0 -0 -0 -0 -0 -0
-0 -0 -10 -13 -26 -2 -0 -0 -4 -0 -0 -0 -0 -0 -0 -0 -0 -0 -0 -0 -0 -0 -0 -0 -0 -0 -0 -0 -0 -0 -0 -0 -0 -0 -0 -0 -0 -0 -0 -0 -0 -0 -0 -0
-0 -7 -11 -8 -7 -19 -5 -0 -6 -0 -0 -0 -0 -0 -0 -0 -0 -0 -0 -0 -0 -0 -0 -0 -0 -0 -0 -0 -0 -0 -0 -0 -0 -0 -0 -0 -0 -0 -0 -0 -0 -0 -0 -0
-9 -9 -0 -4 -0 -0 -2 -0 -1 -3 -0 -0 -0 -0 -0 -0 -0 -0 -0 -0 -0 -0 -0 -0 -0 -0 -0 -0 -0 -0 -0 -0 -0 -0 -0 -0 -0 -0 -0 -0 -0 -0 -0 -0
-4 -6 -0 -0 -7 -0 -0 -0 -0 -0 -0 -0 -0 -0 -0 -0 -0 -0 -0 -0 -0 -0 -0 -0 -0 -0 -0 -0 -0 -0 -0 -0 -0 -0 -0 -0 -0 -0 -0 -0 -0 -0 -0 -0
-1 -4 -0 -1 -6 -9 -0 -0 -0 -0 -37 -6 -0 -0 -0 -0 -0 -0 -0 -0 -0 -0 -0 -0 -0 -0 -0 -0 -0 -0 -0 -0 -0 -0 -0 -0 -0 -0 -0 -0 -0 -0 -0 -0
-7 -5 -0 -0 -0 -0 -0 -0 -0 -0 -0 -0 -0 -0 -0 -0 -0 -0 -0 -0 -0 -0 -0 -0 -0 -0 -0 -0 -0 -0 -0 -0 -0 -0 -0 -0 -0 -0 -0 -0 -0 -0 -0 -0
-0 -1 -0 -0 -0 -21 -16 -1 -0 -0 -0 -0 -0 -0 -0 -0 -0 -0 -0 -0 -0 -0 -0 -0 -0 -0 -0 -0 -0 -0 -0 -0 -0 -0 -0 -0 -0 -0 -0 -0 -0 -0 -0 -0
-36 -0 -0 -0 -0 -0 -0 -0 -0 -0 -0 -0 -0 -0 -0 -0 -0 -0 -0 -0 -0 -0 -0 -0 -0 -0 -0 -0 -0 -0 -0 -0 -0 -0 -0 -0 -0 -0 -0 -0 -0 -0 -0 -0
-4 -13 -1 -0 -5 -10 -2 -0 -0 -0 -0 -0 -0 -0 -0 -0 -0 -0 -0 -0 -0 -0 -0 -0 -0 -0 -0 -0 -0 -0 -0 -0 -0 -0 -0 -0 -0 -0 -0 -0 -0 -0 -0 -0
-0 -0 -0 -1 -0 -0 -0 -0 -0 -0 -0 -0 -0 -0 -0 -0 -0 -0 -0 -0 -0 -0 -0 -0 -0 -0 -0 -0 -0 -0 -0 -0 -0 -0 -0 -0 -0 -0 -0 -0 -0 -0 -0 -0
-0 -0 -0 -0 -0 -0 -0 -0 -0 -0 -0 -0 -0 -0 -0 -0 -0 -0 -0 -0 -0 -0 -0 -0 -0 -0 -0 -0 -0 -0 -0 -0 -0 -0 -0 -0 -0 -0 -0 -0 -0 -0 -0 -0
-0 -0 -0 -0 -0 -0 -0 -0 -0 -48 -0 -0 -0 -0 -0 -0 -0 -0 -0 -0 -0 -0 -0 -0 -0 -0 -0 -0 -0 -0 -0 -0 -0 -0 -0 -0 -0 -0 -0 -0 -0 -0 -0 -0
-0 -0 -0 -7 -0 -0 -0 -0 -0 -0 -0 -0 -0 -0 -0 -0 -0 -0 -0 -0 -0 -0 -0 -0 -0 -0 -0 -0 -0 -0 -0 -0 -0 -0 -0 -0 -0 -0 -0 -0 -0 -0 -0 -0
-0 -0 -0 -0 -0 -0 -0 -0 -0 -0 -0 -0 -0 -0 -0 -0 -0 -0 -0 -0 -0 -0 -0 -0 -0 -0 -0 -0 -0 -0 -0 -0 -0 -0 -0 -0 -0 -0 -0 -0 -0 -0 -0 -0
-0 -0 -0 -0 -0 -0 -0 -0 -0 -0 -0 -0 -0 -0 -0 -0 -0 -0 -0 -0 -0 -0 -0 -0 -0 -0 -0 -0 -0 -0 -0 -0 -0 -0 -0 -0 -0 -0 -0 -0 -0 -0 -0 -0
-0 -0 -0 -0 -0 -0 -0 -0 -0 -0 -0 -0 -0 -0 -0 -0 -0 -0 -0 -0 -0 -0 -0 -0 -0 -0 -0 -0 -0 -0 -0 -0 -0 -0 -0 -0 -0 -0 -0 -0 -0 -0 -0 -0
-0 -0 -0 -0 -0 -0 -0 -0 -0 -0 -0 -0 -0 -0 -0 -0 -0 -0 -0 -0 -0 -0 -0 -0 -0 -0 -0 -0 -0 -0 -0 -0 -0 -0 -0 -0 -0 -0 -0 -0 -0 -0 -0 -0
-0 -0 -0 -0 -0 -0 -0 -0 -0 -0 -0 -0 -0 -0 -0 -0 -0 -0 -0 -0 -0 -0 -0 -0 -0 -0 -0 -0 -0 -0 -0 -0 -0 -0 -0 -0 -0 -0 -0 -0 -0 -0 -0 -0
Wind_Speed
10 6 11 13 8 4 5 4 5 0 3 4 14 18 21 16 16 15 14 14 16 17 17 12 13 15 16 16 18 19 19 19 14 12 11 11 10 11 10 10 13 14 13 13
6 19 23 12 8 12 6 6 3 4 2 2 13 18 21 19 16 19 20 19 17 14 15 14 15 15 18 19 20 21 21 19 16 13 12 10 11 11 11 10 12 14 14 14
11 4 13 18 17 14 8 5 3 1 7 10 13 22 25 18 19 21 22 22 22 23 22 21 19 19 18 20 22 21 21 22 20 19 12 10 8 7 9 11 11 13 16 15
10 4 18 19 22 18 18 13 11 7 3 3 5 10 18 17 16 16 19 21 24 25 24 22 21 19 19 21 18 21 21 22 20 21 16 17 14 13 12 12 11 12 16 16
9 17 17 22 23 17 10 16 17 12 10 10 15 9 8 8 13 19 21 20 22 22 21 23 22 20 18 15 17 19 21 21 21 20 20 16 17 13 11 11 14 15 14 17
7 1 7 8 11 18 12 11 6 4 5 10 17 16 9 9 9 15 18 19 17 16 17 18 17 15 16 14 15 16 19 21 22 21 23 23 21 18 13 14 12 11 11 11
5 4 4 7 11 8 11 11 3 4 6 11 3 11 17 10 16 17 15 14 9 9 11 13 13 13 14 16 17 16 19 20 21 22 22 22 22 21 20 17 13 13 11 10
11 9 15 9 9 7 16 13 5 7 8 3 4 13 7 20 21 20 17 16 15 14 12 13 13 12 12 13 14 16 18 20 20 21 22 19 22 13 14 16 12 11 11 11
12 5 3 9 5 11 8 8 7 1 1 3 6 11 12 16 15 11 13 11 12 13 12 13 14 13 13 12 14 16 17 18 19 20 18 19 18 19 16 18 15 12 13 11
3 5 2 11 6 6 6 11 4 3 7 8 10 12 11 3 8 13 12 9 9 9 11 12 11 13 12 13 12 12 15 18 17 18 17 15 17 17 16 14 16 16 13 13
6 3 4 9 11 14 5 4 4 3 4 3 4 9 4 13 12 9 7 5 8 9 8 11 12 11 13 11 8 10 11 14 14 16 16 16 15 16 16 14 14 14 13 13
12 2 6 10 4 1 16 13 14 4 7 5 6 14 8 8 5 3 11 12 5 6 8 10 11 12 11 10 6 7 9 12 13 13 15 15 16 15 14 15 15 13 14 13
15 9 6 5 4 7 10 18 17 17 0 13 7 16 5 1 4 7 9 13 12 9 9 9 9 11 11 8 8 8 9 11 11 12 14 14 14 13 15 15 15 13 12 12
15 6 15 13 5 6 11 17 19 19 10 20 16 33 28 19 16 18 16 17 18 20 19 11 9 9 9 8 8 9 10 8 9 11 12 13 13 13 13 11 11 11 10 10
12 8 15 18 5 2 3 4 17 22 27 17 26 25 40 13 14 13 10 13 17 16 19 20 16 11 10 10 9 9 8 6 5 8 9 10 6 6 6 7 5 3 4 3
3 2 5 5 12 11 13 14 15 14 13 14 24 27 45 16 16 15 16 15 17 17 17 16 11 11 10 10 10 8 8 7 6 7 8 7 5 4 4 5 5 5 5 5
7 5 3 5 6 4 8 25 22 22 21 20 20 33 26 18 18 18 19 18 19 20 21 22 23 19 14 12 11 12 9 7 7 6 5 5 6 6 6 6 6 6 6 5
7 6 1 3 1 15 9 5 17 23 25 21 25 34 34 20 21 21 17 20 20 21 22 25 22 20 15 12 9 9 9 9 8 7 7 7 8 7 6 6 6 5 5 7
7 4 4 5 6 8 13 6 8 9 19 20 24 28 25 19 21 27 18 21 22 21 20 21 21 21 17 10 10 10 9 9 9 10 9 10 10 10 10 10 9 6 7 6
8 7 6 3 5 7 10 8 8 3 18 17 21 25 25 18 15 19 4 8 10 14 16 17 19 18 14 13 11 11 12 12 14 13 14 12 12 11 11 11 11 7 8 8
6 4 11 10 7 10 5 5 7 9 20 4 8 17 18 16 17 26 18 20 19 19 22 19 18 17 18 12 11 14 13 18 16 11 10 10 11 11 11 11 6 9 9 8
9 11 8 8 6 18 14 8 15 11 13 5 5 10 15 17 20 24 19 19 18 20 22 21 15 18 18 9 12 15 17 17 12 13 12 11 10 9 9 11 10 10 10 10
6 10 7 11 10 15 10 9 5 6 6 6 7 14 17 22 23 22 22 22 19 19 17 17 18 20 18 9 14 15 19 11 12 12 12 11 11 9 10 13 13 11 11 10
5 2 5 6 15 20 15 4 10 12 15 15 10 12 15 21 23 24 21 21 20 19 18 14 17 18 18 9 11 18 6 10 12 13 13 12 12 11 9 7 8 9 9 9
1 0 4 10 20 16 22 13 14 17 17 18 15 14 15 19 24 23 21 20 19 20 19 16 15 18 17 7 11 7 8 13 13 10 10 11 10 12 10 7 7 7 6 8
6 5 6 11 9 8 15 17 24 23 19 19 22 23 16 17 22 22 22 17 19 20 20 20 17 15 14 6 7 6 9 13 14 14 11 10 9 9 9 9 7 6 7 8
Wind_Direction
189 164 207 240 258 300 155 182 242 326 282 271 254 259 267 260 248 249 251 248 245 242 242 231 222 221 223 221 217 214 209 209 205 204 204 209 211 213 216 217 217 216 215 215
151 215 213 200 237 236 197 178 167 333 358 309 277 270 272 259 251 250 247 246 245 242 242 229 224 217 216 217 216 215 215 207 204 206 208 208 208 220 217 215 216 218 215 215
199 260 185 181 184 191 197 175 145 146 351 289 289 274 269 253 241 248 245 246 247 247 244 244 230 223 220 217 216 214 214 212 206 208 202 207 218 216 216 220 216 216 215 213
221 178 171 184 187 194 211 199 200 198 59 279 324 291 276 277 258 247 252 243 244 244 240 245 244 232 219 220 216 217 214 214 213 205 204 204 205 209 218 218 219 217 212 214
166 172 183 182 195 196 229 172 192 203 212 267 256 262 260 255 262 259 254 249 244 246 248 247 245 249 238 225 216 216 217 213 214 209 210 209 217 221 222 222 224 219 214 218
148 148 172 173 177 191 145 134 153 159 204 248 250 225 255 260 253 256 256 252 254 250 250 251 253 253 246 235 225 222 219 218 212 210 211 213 216 220 217 218 221 222 221 218
122 195 162 163 153 188 179 161 169 187 194 246 34 224 253 251 240 244 255 257 273 262 258 263 259 246 242 232 224 221 219 223 216 214 214 216 216 215 220 219 218 222 219 217
169 187 183 185 201 176 190 186 191 215 209 248 96 240 249 243 247 262 257 273 284 278 272 269 271 264 248 237 232 227 222 225 218 217 217 215 218 218 218 220 217 219 217 215
184 184 192 185 154 169 162 201 243 281 322 260 218 256 257 252 251 265 272 267 281 293 288 279 278 263 250 242 232 225 228 231 226 219 219 219 218 218 217 218 220 219 222 220
196 150 227 181 204 217 204 140 148 182 212 229 232 263 250 238 264 237 261 281 282 312 308 302 295 291 279 263 250 233 230 231 227 221 218 217 217 219 220 220 220 219 222 221
156 184 132 164 203 192 143 177 222 192 186 244 280 247 253 234 262 299 303 281 308 310 316 313 309 303 288 274 252 251 236 233 229 225 219 215 213 215 217 218 219 220 220 215
172 143 182 200 130 293 211 203 194 198 190 255 310 266 206 247 255 305 299 295 310 307 325 317 317 318 306 295 283 265 239 227 228 225 221 218 216 213 214 216 217 215 217 215
174 211 192 193 220 209 219 219 230 233 313 238 249 265 57 290 296 322 322 326 320 301 308 327 336 324 315 299 288 272 255 237 223 219 218 218 217 211 214 217 220 215 216 218
163 194 211 218 225 185 207 223 220 226 230 243 238 265 258 259 276 301 302 302 307 315 326 323 315 312 298 282 269 271 271 251 235 221 213 214 212 213 216 216 214 212 211 212
187 218 219 238 240 90 180 234 236 230 236 235 248 254 266 267 286 303 319 303 301 300 298 303 306 300 297 288 270 261 254 257 237 232 228 224 205 195 190 188 178 151 161 161
173 132 183 246 236 244 250 247 238 234 259 247 260 270 263 297 288 291 290 299 296 294 294 291 272 266 266 267 257 251 251 236 213 217 222 202 176 149 147 127 128 128 131 126
178 143 147 227 193 192 252 237 246 248 239 235 249 251 284 280 282 284 287 287 288 290 289 281 273 268 255 237 230 230 224 209 211 206 178 169 155 159 156 149 144 141 139 129
165 149 140 238 124 219 249 248 231 233 243 242 251 261 273 283 281 277 267 269 268 265 269 271 274 278 270 251 224 225 189 200 208 200 177 167 170 166 155 152 153 145 142 146
193 145 167 198 211 311 284 206 185 205 251 234 246 262 274 280 273 266 259 245 251 261 266 273 278 280 278 246 218 208 192 186 185 200 202 180 177 170 168 168 164 152 143 140
212 255 200 163 224 239 264 203 192 164 269 233 235 251 261 272 268 275 285 289 290 286 284 283 276 277 272 258 208 198 204 193 207 196 197 189 174 174 176 169 161 156 153 145
177 201 220 215 232 269 256 209 160 187 259 156 246 262 287 281 279 301 323 310 300 294 291 284 275 267 260 251 196 213 206 212 204 190 180 183 175 173 169 159 151 147 145 137
169 177 206 213 222 260 171 178 208 241 293 16 342 331 317 306 304 309 319 313 314 303 299 298 280 271 268 232 197 222 214 215 190 173 172 175 168 161 156 156 150 149 148 143
203 205 179 195 202 251 194 246 43 7 308 53 340 322 321 310 308 314 313 312 308 306 306 309 294 283 281 220 209 224 228 185 169 166 171 168 162 162 165 162 161 157 157 155
242 174 233 247 247 260 266 76 51 9 338 337 342 323 311 305 310 311 311 312 308 306 300 304 297 278 274 238 222 232 184 169 165 173 167 163 164 160 164 170 170 165 168 164
293 112 271 257 262 293 280 67 8 338 326 324 324 316 311 307 304 307 302 300 301 302 302 299 292 283 275 260 235 225 174 166 164 165 166 170 166 166 159 164 171 175 179 184
17 339 253 261 40 313 288 346 332 323 329 322 318 316 310 307 300 302 296 300 299 299 301 298 290 275 278 246 234 206 177 178 169 162 165 173 166 161 156 148 141 125 146 163